Theta_e
349 350 348 349 350 353 351 352 350 347 352 349 349 351 349 352 351 350 350 353 353 354 353 353 353 353 353 352 352 351 350 349 352 351 350 348 347 349 347 347 350 349 350
348 349 350 349 353 352 353 352 349 352 352 351 351 350 352 353 353 353 353 353 353 354 354 352 352 351 352 352 352 352 351 352 351 350 350 350 349 351 351 351 349 346 349
348 349 350 352 353 353 352 352 352 352 352 351 353 352 353 353 353 353 353 354 353 353 352 352 352 351 347 347 350 350 339 346 351 350 345 346 348 351 352 352 350 349 349
347 350 349 350 353 353 352 352 352 353 353 351 352 352 353 352 353 353 354 353 351 353 352 352 353 351 348 343 346 347 339 342 347 345 343 347 350 353 351 350 350 350 348
346 349 348 349 352 352 350 351 352 352 352 352 351 351 352 353 353 354 352 351 353 354 353 353 351 350 346 340 341 342 343 344 345 344 346 345 347 351 352 350 349 349 348
345 346 347 351 352 352 351 348 352 352 350 352 353 353 353 353 353 352 352 353 353 351 352 349 347 345 345 344 342 344 346 345 346 347 345 344 342 348 350 350 350 348 340
345 343 347 351 352 352 350 351 352 352 350 351 352 350 352 351 352 353 353 353 349 347 347 347 347 345 345 345 346 347 347 347 347 347 346 346 343 345 349 349 349 350 345
344 346 346 348 352 351 352 351 352 351 351 351 349 344 345 344 345 348 349 349 347 345 344 345 346 345 343 344 343 342 344 345 348 346 346 345 340 342 351 350 349 349 345
346 346 345 347 350 353 349 350 350 351 352 352 346 337 336 337 338 341 342 343 343 342 343 344 345 345 343 345 341 342 336 338 345 348 344 343 338 344 350 348 345 348 347
344 343 340 340 348 350 351 352 348 352 351 342 338 334 334 334 335 339 341 341 342 342 343 344 345 346 344 344 342 339 340 338 341 346 348 345 334 335 340 340 341 343 343
344 338 341 338 337 347 343 349 352 351 346 343 337 335 340 337 339 336 338 339 340 340 341 341 341 342 344 345 344 341 340 341 341 344 348 348 337 337 339 335 339 342 341
341 344 347 339 330 334 338 339 340 338 335 335 337 340 341 342 343 343 344 339 338 340 340 340 343 347 347 348 347 348 342 342 341 343 346 346 337 335 342 338 337 337 339
346 350 350 344 338 332 330 330 331 336 339 343 347 349 352 349 348 350 340 340 342 334 343 342 347 343 344 348 352 350 348 347 344 344 342 341 338 337 340 338 338 339 339
344 349 350 344 337 333 332 342 346 348 348 349 340 351 351 350 351 345 338 343 340 335 336 339 340 345 347 346 350 349 349 348 346 345 341 342 334 337 341 338 338 338 339
349 350 350 344 335 334 333 342 346 349 351 353 350 348 347 346 344 341 344 334 335 337 334 337 345 347 347 350 349 349 348 347 347 347 343 345 336 338 338 339 338 339 340
347 348 348 344 338 338 339 342 344 347 350 355 351 338 341 343 343 339 338 336 340 339 339 344 349 349 351 348 345 343 346 348 348 348 345 344 342 342 341 339 339 339 339
346 342 344 344 340 341 346 346 344 346 351 351 351 347 349 349 349 346 342 341 345 340 343 342 347 348 347 345 349 350 348 346 347 348 346 347 345 345 344 342 341 340 340
343 343 342 342 344 346 348 350 349 350 352 352 353 348 353 354 350 347 348 347 347 346 349 349 346 346 349 345 350 348 347 346 345 346 348 349 348 347 345 343 342 342 341
343 343 344 345 344 344 349 348 349 349 347 349 353 350 346 350 350 351 350 349 349 349 353 352 353 351 348 347 349 346 346 346 344 345 349 348 348 348 350 349 346 343 343
342 342 343 345 345 343 343 344 347 348 348 346 347 346 349 348 347 349 351 351 350 350 348 347 348 347 346 345 344 346 346 344 343 343 344 346 344 347 348 351 349 348 347
343 344 345 345 343 343 345 347 345 345 343 344 343 341 346 350 350 350 350 350 350 348 343 338 344 347 346 344 345 345 348 344 340 341 340 340 342 341 341 350 349 348 349
344 344 346 346 346 344 342 346 342 344 347 352 349 349 353 352 352 351 351 351 350 346 343 344 347 347 347 345 345 347 345 346 343 330 331 328 327 327 333 345 349 350 350
343 343 345 345 346 345 343 342 342 346 352 351 354 353 353 352 351 351 350 349 351 351 350 349 347 346 344 345 345 345 345 346 343 340 327 325 325 329 331 338 339 346 347
343 343 343 345 345 345 344 347 348 349 350 349 350 352 351 351 349 348 348 349 349 349 348 347 347 346 346 346 338 342 346 346 339 340 338 325 328 335 337 345 345 333 327
345 345 344 343 346 345 348 349 349 351 350 349 348 349 350 349 347 342 341 348 348 345 344 342 341 340 337 336 332 332 333 326 336 337 326 323 323 332 343 329 328 328 327
344 345 347 345 348 347 348 348 351 352 351 349 349 348 346 344 343 341 340 342 345 345 343 337 334 332 330 327 325 325 325 324 324 324 322 323 322 324 333 326 324 324 326
Wind_Speed
17 17 15 15 14 14 14 13 12 14 14 15 16 17 17 18 18 18 18 18 17 16 15 14 14 14 14 14 14 14 14 15 15 15 14 16 19 17 17 20 20 20 21
23 18 17 16 15 14 14 14 14 14 13 14 15 16 17 16 16 17 17 17 16 15 15 13 14 14 13 14 14 13 13 14 14 15 13 11 14 18 16 20 21 22 21
23 20 18 16 15 15 16 15 14 14 14 14 14 16 16 16 15 15 16 15 14 14 13 13 12 12 12 13 13 13 13 15 15 13 12 14 16 16 16 18 21 21 19
25 22 19 17 16 15 15 14 14 14 14 14 14 15 14 13 13 14 14 13 12 13 12 11 10 11 10 11 12 10 9 11 14 13 13 11 12 15 15 18 19 20 19
25 22 19 17 15 15 14 14 15 14 15 14 14 15 13 14 13 14 13 13 12 11 10 9 9 9 9 9 8 8 7 6 6 7 8 9 10 13 14 16 17 19 19
25 22 19 17 15 15 16 15 15 14 15 14 12 13 12 12 13 13 13 12 11 10 9 8 8 8 8 8 6 5 6 5 7 4 7 9 9 13 14 14 14 15 15
26 22 20 18 16 15 15 16 15 14 15 14 12 11 10 11 11 11 10 10 9 7 6 6 6 8 9 8 6 4 4 3 4 2 7 12 10 13 14 13 13 12 14
26 23 20 18 16 15 15 16 15 14 13 13 10 10 10 10 11 10 10 9 7 6 4 4 5 7 6 6 2 1 3 5 2 5 10 16 14 16 14 15 15 15 14
23 22 21 18 16 15 15 15 14 14 13 11 9 10 11 11 12 12 11 9 6 4 2 1 3 4 4 3 0 3 5 7 5 5 11 14 15 16 16 15 15 14 13
22 20 19 18 18 17 14 14 14 14 13 12 12 12 11 11 10 8 7 5 3 0 2 4 3 2 2 3 1 1 8 4 6 7 10 15 16 15 15 14 14 14 13
21 21 18 18 18 17 15 13 13 11 11 11 12 12 10 10 9 8 5 3 1 3 4 6 4 4 5 6 6 3 7 6 6 7 9 14 16 15 15 14 14 14 14
24 22 20 18 18 18 15 15 15 15 15 14 11 9 7 8 6 4 4 2 2 5 7 8 7 6 5 11 13 9 6 6 6 9 9 14 16 16 15 13 14 15 14
28 23 21 18 17 19 18 17 18 16 15 11 8 7 6 9 8 5 6 3 1 9 5 10 7 7 5 6 15 13 9 9 7 6 7 13 17 18 17 14 14 15 15
29 24 22 20 18 20 22 22 19 16 15 12 10 11 7 11 11 10 9 5 2 12 3 6 11 6 6 7 9 8 13 13 8 10 10 9 20 19 18 17 15 15 15
29 26 25 23 22 20 21 20 18 16 14 14 13 12 14 16 12 7 7 5 6 9 11 9 5 6 7 9 3 7 8 11 14 12 10 10 20 18 17 18 17 16 16
34 29 29 25 22 23 19 16 14 14 14 13 12 15 11 12 10 10 6 7 7 6 8 6 8 5 5 7 8 1 5 11 16 20 16 16 20 17 15 17 17 17 16
35 29 32 31 24 22 17 17 20 16 19 16 13 17 14 11 10 8 9 16 2 5 8 15 13 7 7 9 10 12 8 5 13 18 20 21 22 18 13 14 15 15 15
34 30 30 29 25 23 17 13 21 18 17 17 16 16 17 18 15 15 14 14 8 3 3 7 10 6 3 3 5 12 12 9 8 2 15 18 18 18 18 14 13 13 14
37 34 30 26 24 22 14 13 13 9 14 14 17 14 12 15 15 14 14 10 7 6 7 5 4 1 3 5 4 6 9 8 11 6 7 1 7 5 11 15 13 8 13
37 33 29 25 23 25 17 13 11 7 7 12 12 10 18 15 12 12 15 14 12 12 8 2 1 3 4 5 5 3 7 8 7 11 13 10 10 7 1 11 14 14 10
37 32 30 27 24 25 21 15 13 10 6 5 7 8 11 20 18 15 14 13 12 11 5 6 4 5 5 6 4 2 3 9 13 16 13 17 6 8 7 4 6 10 8
39 34 34 33 30 26 22 17 14 11 1 2 7 6 14 17 16 12 11 10 8 7 6 6 5 6 5 4 2 1 1 2 5 17 20 20 21 14 13 6 5 5 3
35 37 38 35 35 30 23 17 15 11 5 4 6 15 19 17 13 11 8 7 5 6 7 5 4 5 5 1 1 3 2 3 2 3 16 20 22 17 15 11 10 9 9
36 39 37 34 35 36 30 26 21 15 9 9 10 13 14 15 13 11 7 8 8 8 7 5 4 3 6 7 1 1 0 2 2 1 2 14 28 24 18 20 26 25 20
32 37 40 38 32 35 29 26 20 15 17 16 12 13 15 15 15 9 8 6 7 8 6 6 4 6 7 7 4 2 9 8 0 1 1 6 16 24 27 34 28 21 20
35 34 30 35 33 32 31 26 21 17 19 18 17 15 12 10 10 14 12 10 7 3 5 4 7 7 9 10 13 13 6 4 4 6 4 2 3 15 22 23 24 22 14
Wind_Direction
152 144 141 139 135 130 128 122 114 109 100 100 100 99 101 100 104 107 110 110 110 105 107 105 105 103 107 112 108 106 105 111 113 118 121 124 121 121 126 133 133 134 134
147 147 144 143 137 136 127 125 123 113 108 101 100 100 101 101 104 106 110 107 107 108 105 106 103 104 111 110 106 106 107 112 115 118 118 120 125 128 127 129 136 134 134
145 146 146 143 140 135 131 126 123 116 110 104 105 103 104 105 106 106 108 109 111 108 107 104 104 107 115 116 115 106 112 126 121 117 125 130 137 141 133 136 140 140 139
147 148 146 146 140 135 133 130 126 120 115 114 112 110 109 109 109 111 108 107 109 110 106 107 104 102 107 115 115 114 93 134 129 112 115 117 127 137 144 145 146 147 150
148 148 145 144 141 138 132 131 128 125 122 120 117 112 114 110 108 110 112 113 112 111 110 105 102 104 110 112 110 106 96 95 135 145 132 146 153 152 156 159 157 157 158
149 148 147 144 143 140 141 138 132 129 123 120 116 116 120 114 115 115 119 121 124 123 118 111 96 97 100 99 91 55 42 60 54 30 179 174 181 168 165 164 167 164 165
150 150 150 150 146 141 140 138 134 133 125 125 128 131 128 126 125 125 123 122 123 119 115 111 106 85 81 83 76 47 8 0 9 285 215 198 187 181 171 170 172 173 173
150 151 151 151 146 146 145 141 140 139 135 134 139 136 134 134 132 131 130 131 132 129 123 100 80 74 72 67 97 76 337 303 259 276 215 208 189 187 180 174 175 180 180
151 151 150 148 149 151 153 150 144 140 137 145 143 146 143 142 142 140 138 139 141 141 127 81 48 45 33 7 94 71 35 335 235 220 210 201 199 193 186 184 183 183 184
153 154 153 155 156 154 157 149 148 144 156 156 151 147 142 139 134 131 132 131 128 9 318 311 324 341 347 295 155 30 356 2 209 209 214 223 201 204 196 191 188 186 190
157 155 153 160 165 162 160 158 154 157 157 152 145 142 139 134 124 133 133 108 2 305 303 296 295 308 302 271 218 328 356 19 198 208 216 220 210 208 205 195 196 194 195
161 163 156 155 165 168 162 160 158 155 146 134 127 126 125 109 110 109 93 64 300 323 300 297 296 309 268 257 255 261 5 26 203 222 226 218 212 211 209 196 199 199 200
166 162 167 152 159 161 157 151 147 148 146 141 134 117 139 155 145 129 130 130 341 7 300 308 294 306 306 262 252 250 261 283 210 202 216 232 219 214 209 204 199 202 203
173 169 169 160 155 163 153 149 149 151 152 150 132 127 126 139 153 158 122 100 235 338 278 292 314 316 324 322 257 268 253 251 237 219 212 230 220 218 214 216 208 204 204
169 175 174 169 162 171 172 166 165 155 160 155 157 169 146 151 162 203 208 207 297 270 280 299 352 20 357 336 261 268 254 251 231 227 232 237 222 221 219 221 220 216 212
172 179 179 175 178 177 177 179 184 180 172 174 169 167 136 139 141 159 175 190 164 243 261 272 305 300 299 331 357 289 316 276 246 259 250 238 216 219 223 226 229 228 228
167 173 181 178 190 190 181 201 208 205 184 174 171 153 152 159 163 143 180 175 161 224 246 262 269 281 246 329 14 39 37 333 271 262 262 247 228 217 221 225 227 236 236
158 159 164 171 177 181 172 168 176 174 181 188 184 184 179 167 171 167 163 186 221 251 289 260 229 219 159 303 2 16 32 71 57 204 233 227 237 241 238 233 231 234 245
169 167 169 178 183 190 179 183 166 159 191 187 197 207 198 181 169 159 165 173 183 153 146 144 147 144 8 328 351 43 57 55 57 77 163 148 269 245 241 252 232 239 247
175 178 182 189 195 195 197 187 183 185 189 205 209 203 217 198 182 161 148 148 161 170 175 160 20 315 302 301 296 108 90 78 75 95 107 96 77 97 252 257 237 222 241
178 179 182 181 187 199 205 198 191 199 213 221 246 222 209 199 194 192 171 173 185 206 216 236 239 262 284 311 273 141 147 69 80 79 93 68 81 79 90 199 239 229 240
179 185 186 190 189 194 199 198 201 207 208 322 269 236 191 198 194 198 207 204 191 217 227 233 231 221 236 332 280 155 76 229 44 73 83 83 74 75 98 115 176 221 188
183 188 189 195 195 194 195 194 203 202 172 157 126 155 161 170 172 180 208 232 211 222 209 201 209 203 211 311 272 214 109 209 321 41 56 69 62 72 98 115 132 131 126
189 190 190 193 198 197 194 198 197 202 154 142 146 157 160 178 179 187 196 208 211 193 168 150 156 160 183 187 121 50 122 152 186 308 40 50 62 70 101 102 99 92 89
186 192 194 198 194 194 193 198 199 177 169 167 169 176 182 179 191 228 240 224 159 124 113 128 106 105 112 130 151 90 124 66 285 84 324 15 63 65 98 103 87 80 77
189 193 202 199 195 191 191 197 200 190 187 198 208 212 202 209 207 208 220 220 210 223 178 142 127 129 122 100 93 96 103 85 55 58 70 24 54 71 96 91 73 68 70